STARLINK-32641, 62236

Orbit data source: Space-Track

STARLINK-32641, 62236 is a payload satellite owned by SpaceX/Seattle (US) in LEO that was launched on Thu, 05 Dec 2024 UTC via an FALCON 9 launch vehicle from the Air Force Western Test Range (AFWTR). Payload-class satellites include a variety of spacecraft equipped with specific instruments for various scientific and technological missions. These include communications satellites like Starlink; space stations such as the ISS; scientific satellites like the Hubble; Earth observation satellites from companies like Planet Labs, Umbra, and HawkEye 360; GPS; miniature CubeSats for education and research; and military/defense satellites.

Loading next visibility...
Identifier
62236, 2024-231U
Orbit
LEO
Country
Flag of USUS
Related business
Manufacturer
SpaceX/Seattle
Mission
Operational Commercial Communications
Bus & Motor
STARLINK V2M, Unknown motor
Mass
730 kg wet, ~700 kg dry
Launch date (UTC)
2024-12-05 (11 months ago)
Launch vehicle
FALCON 9
Launch site
Air Force Western Test Range (AFWTR)
Object type
Payload
Rocket body
Debris
Shape & HBR
Box + 2 Pan, 17.7 m
Radar Cross Section
33.884 m², Large (>1 m²)

Expand to show TLE details & history
Last TLE update: 20 hours ago

TLE from 20 hours ago
0 STARLINK-32641
1 62236U 24231U   25296.23886569  .00027255  00000-0  92830-3 0  9998
2 62236  53.1581 125.3222 0001128  90.3728 269.7402 15.30223221 50895
Epoch: 2025-10-23T05:43Z
TLE epoch observation values (Epoch: 2025-10-23T05:43:57.995Z)
Latitude
-0.00003°
Longitude
7.42955°
Altitude
476.049 km
Speed
7.629 km/s
True Right ascension
08h 21m 17s
True Declination
0° 00' 00"
Sunlit
Object was in daylight at epoch
Visualization orbit readout
Latitude
Unknown
Longitude
Unknown
Altitude
Unknown
Speed
Unknown
Apparent Right ascension
Unknown
Apparent Declination
Unknown
Sunlit
N/A
Visualization observer readout
Local Sidereal Time
20:24:50
Azimuth
Unknown
Elevation
Unknown
Doppler factor
Unknown
Orbital elements
Apogee altitude
476.176 km
Perigee altitude
474.629 km
Semi-major axis
6,853.539 km
Eccentricity
0.00011
Inclination
53.1581°
RAAN
125.3222°
Arg. of periapsis
90.3728°
True anomaly
269.72727°
Mean anomaly
269.7402°
Eccentric anomaly
269.73374°
Mean motion
3.82535 °/min
Orbital period
94.11 mins
BSTAR
0.0009283
Loading maneuver chart data...
Computing Atmospheric mass density...
Loading historical data...
Loading historical data...
Loading historical data...
Loading historical data...
Loading historical data...
Loading historical data...
Loading historical data...

Documentation

Showing up to 5 results
|